Date,TemperatureHighF,TemperatureAvgF,TemperatureLowF,DewpointHighF,DewpointAvgF,DewpointLowF,HumidityHigh,HumidityAvg,HumidityLow,PressureMaxIn,PressureMinIn,WindSpeedMaxMPH,WindSpeedAvgMPH,GustSpeedMaxMPH,PrecipitationSumIn
2013-9-1,88.4,71.5,56.2,51.1,43.3,27.5,67,41,13,29.97,29.85,0,0,0,0.00
2013-9-2,83.3,66.7,53.6,51.7,47.6,34.7,75,54,19,29.98,29.89,0,0,0,0.00
2013-9-3,80.1,64.0,51.7,50.4,46.6,34.8,80,57,21,30.05,29.96,0,0,0,0.00
2013-9-4,81.4,63.6,50.8,48.8,44.9,32.6,79,54,19,30.06,29.98,0,0,0,0.00
2013-9-5,69.1,57.3,51.1,56.2,46.9,42.5,84,69,49,30.08,29.94,0,0,0,0.18
2013-9-6,67.3,56.8,48.1,48.7,45.3,41.8,83,66,47,30.15,30.07,0,0,0,0.00
2013-9-7,75.4,59.5,43.7,51.2,45.6,38.9,85,63,37,30.15,30.02,0,0,0,0.00
2013-9-8,73.1,61.5,48.4,50.9,46.2,40.6,78,59,37,30.12,30.08,0,0,0,0.00
2013-9-9,78.8,60.9,50.4,50.2,43.0,35.0,72,54,25,30.10,30.02,0,0,0,0.00
2013-9-13,78.3,72.0,59.8,49.4,45.2,38.6,52,39,26,30.02,29.91,0,0,0,0.00
2013-9-14,83.7,69.5,56.9,51.0,46.9,43.6,64,47,26,29.94,29.84,0,0,0,0.00
2013-9-15,86.0,70.0,58.0,50.0,43.4,31.5,61,41,15,29.91,29.75,0,0,0,0.00
2013-9-16,68.4,57.8,48.8,46.4,42.7,38.9,74,58,43,29.97,29.91,0,0,0,0.00
2013-9-17,55.4,50.2,44.3,45.2,40.7,36.5,79,70,60,29.99,29.84,0,0,0,0.01
2013-9-18,63.4,51.5,41.6,40.2,36.6,33.1,77,59,36,30.08,29.99,0,0,0,0.00
2013-9-19,74.0,56.1,38.9,40.8,34.6,29.8,72,48,25,30.07,29.89,0,0,0,0.15
2013-9-20,74.5,56.0,42.3,43.4,35.8,28.9,74,49,23,29.89,29.68,0,0,0,0.06
2013-9-21,61.0,51.9,44.1,42.5,39.2,35.8,75,63,46,29.81,29.73,0,0,0,0.00
2013-9-22,57.8,49.1,43.2,44.9,39.4,35.0,79,70,53,29.88,29.78,0,0,0,0.00
2013-9-23,64.3,53.5,48.6,43.3,39.5,35.5,66,60,43,29.99,29.88,0,0,0,0.00
2013-9-24,52.2,47.2,41.0,42.4,37.9,33.8,81,70,55,29.98,29.82,0,0,0,0.01
2013-9-25,49.9,42.5,36.9,36.6,33.3,28.1,83,70,54,29.96,29.80,0,0,0,0.00
2013-9-26,51.7,41.8,33.1,36.0,31.4,26.3,80,67,51,30.12,29.96,0,0,0,0.00
2013-9-27,60.8,45.2,33.5,41.4,34.6,27.8,82,68,34,30.12,30.01,0,0,0,0.00
2013-9-28,61.0,51.8,45.7,47.4,43.5,41.0,87,74,54,30.01,29.67,0,0,0,0.30
2013-9-29,48.2,44.3,40.7,45.4,39.6,36.2,90,84,73,29.79,29.59,0,0,0,0.73
2013-9-30,51.5,43.9,36.7,45.4,35.1,31.4,90,72,59,29.99,29.62,0,0,0,0.03